Howell, MI

6:49 PM EST on November 18, 2017 (GMT -0500)
Livingston County

Weather History for KOZW - December, 2012

Change the Weather History Date:

Thursday, December 6, 2012

  Actual Average Record
Temperature  
Mean Temperature 30 °F -  
Max Temperature 37 °F 39 °F 66 °F (1998)
Min Temperature 24 °F 26 °F 10 °F (2000)
Degree Days  
Heating Degree Days 34    
Moisture  
Dew Point 25 °F    
Average Humidity 75    
Maximum Humidity 86    
Minimum Humidity 60    
Precipitation  
Precipitation 0.00 in - - ()
Sea Level Pressure  
Sea Level Pressure 30.12 in    
Wind  
Wind Speed 7 mph (SSE)    
Max Wind Speed 12 mph    
Max Gust Speed 17 mph    
Visibility 10 miles    
Events      
Averages and records for this station are not official NWS values.
T = Trace of Precipitation, MM = Missing Value Source: NWS Daily Summary

Daily Weather History Graph

Daily Weather History Graph

Search for Another Location

Airport or City:

Trip Planner

Search our weather history database for the weather conditions in past years. The results will help you decide how hot, cold, wet, or windy it might be!

Date:

Astronomy

Dec. 06, 2012 Rise Set
Actual Time 7:51 AM EST 5:02 PM EST
Civil Twilight 7:20 AM EST 5:34 PM EST
Nautical Twilight 6:44 AM EST 6:09 PM EST
Astronomical Twilight 6:10 AM EST 6:43 PM EST
Moon No Moon Rise 12:36 PM EST (12/6)
Length of Visible Light 10h 14m
Length of Day
9h 10m
Waning Gibbous, 49% of the Moon is Illuminated
Dec 6
Waning Gibbous
Dec 13
New
Dec 20
First Quarter
Dec 28
Full
Jan 4
Last Quarter

Hourly Weather History & Observations

Time (EST) Temp. Windchill Dew Point Humidity Pressure Visibility Wind Dir Wind Speed Gust Speed Precip Events Conditions
12:15 AM 25.2 °F 18.3 °F 20.5 °F 82% 30.32 in 10.0 mi SE 5.8 mph - N/A   Clear
12:34 AM 25.9 °F 19.2 °F 21.0 °F 82% 30.32 in 10.0 mi SE 5.8 mph - N/A   Clear
12:55 AM 25.5 °F 18.7 °F 20.3 °F 81% 30.31 in 10.0 mi SE 5.8 mph - N/A   Clear
1:15 AM 24.8 °F 17.9 °F 20.3 °F 83% 30.30 in 10.0 mi ESE 5.8 mph - N/A   Clear
1:34 AM 26.1 °F 19.4 °F 20.8 °F 81% 30.29 in 10.0 mi SE 5.8 mph - N/A   Clear
1:55 AM 26.1 °F - 21.2 °F 82% 30.29 in 10.0 mi Calm Calm - N/A   Clear
2:15 AM 24.8 °F 17.9 °F 20.3 °F 83% 30.28 in 10.0 mi SE 5.8 mph - N/A   Clear
2:34 AM 26.2 °F 19.6 °F 21.2 °F 81% 30.28 in 10.0 mi SE 5.8 mph - N/A   Clear
2:55 AM 24.8 °F 19.1 °F 19.9 °F 82% 30.28 in 10.0 mi SE 4.6 mph - N/A   Clear
3:14 AM 26.2 °F 19.6 °F 21.0 °F 81% 30.28 in 10.0 mi SSE 5.8 mph - N/A   Clear
3:35 AM 26.2 °F 18.6 °F 21.0 °F 81% 30.28 in 10.0 mi SE 6.9 mph - N/A   Clear
3:55 AM 25.3 °F 18.5 °F 20.3 °F 81% 30.27 in 10.0 mi SE 5.8 mph - N/A   Clear
4:14 AM 26.4 °F 18.0 °F 21.2 °F 81% 30.25 in 10.0 mi SE 8.1 mph - N/A   Clear
4:35 AM 27.0 °F 18.7 °F 21.9 °F 81% 30.25 in 10.0 mi SE 8.1 mph - N/A   Clear
4:54 AM 26.8 °F 19.3 °F 21.7 °F 81% 30.26 in 10.0 mi SSE 6.9 mph - N/A   Clear
5:15 AM 26.8 °F 18.5 °F 21.6 °F 81% 30.25 in 10.0 mi SE 8.1 mph - N/A   Clear
5:35 AM 26.2 °F 19.6 °F 21.2 °F 81% 30.25 in 10.0 mi SE 5.8 mph - N/A   Clear
5:54 AM 25.7 °F 19.0 °F 21.2 °F 83% 30.25 in 10.0 mi SE 5.8 mph - N/A   Clear
6:15 AM 26.4 °F 19.8 °F 21.9 °F 83% 30.25 in 10.0 mi SE 5.8 mph - N/A   Clear
6:34 AM 25.9 °F 19.2 °F 21.7 °F 84% 30.24 in 10.0 mi SE 5.8 mph - N/A   Clear
6:54 AM 26.2 °F 20.7 °F 22.1 °F 84% 30.23 in 10.0 mi SE 4.6 mph - N/A   Clear
7:15 AM 27.0 °F 20.5 °F 23.0 °F 85% 30.23 in 10.0 mi SSE 5.8 mph - N/A   Clear
7:34 AM 27.5 °F 23.6 °F 23.4 °F 84% 30.23 in 10.0 mi South 3.5 mph - N/A   Clear
7:55 AM 27.3 °F 19.9 °F 23.4 °F 85% 30.21 in 10.0 mi SSE 6.9 mph - N/A   Clear
8:15 AM 27.5 °F 20.2 °F 23.9 °F 86% 30.20 in 10.0 mi SE 6.9 mph - N/A   Clear
8:34 AM 28.9 °F 20.4 °F 24.8 °F 84% 30.19 in 10.0 mi SSE 9.2 mph - N/A   Clear
8:55 AM 29.8 °F 22.2 °F 24.8 °F 81% 30.20 in 10.0 mi SSE 8.1 mph - N/A   Clear
9:15 AM 30.4 °F 22.2 °F 24.8 °F 80% 30.19 in 10.0 mi SSE 9.2 mph - N/A   Clear
9:34 AM 31.5 °F 22.9 °F 25.3 °F 78% 30.18 in 10.0 mi SSE 10.4 mph - N/A   Clear
10:15 AM 32.0 °F 23.0 °F 25.0 °F 75% 30.18 in 10.0 mi South 11.5 mph 16.1 mph N/A   Clear
10:34 AM 32.0 °F 24.2 °F 25.5 °F 77% 30.18 in 10.0 mi South 9.2 mph 16.1 mph N/A   Clear
10:55 AM 32.4 °F 24.0 °F 25.2 °F 75% 30.17 in 10.0 mi South 10.4 mph 17.3 mph N/A   Clear
11:14 AM 33.1 °F 25.5 °F 25.5 °F 74% 30.17 in 10.0 mi South 9.2 mph - N/A   Scattered Clouds
11:35 AM 34.0 °F 26.6 °F 25.2 °F 70% 30.16 in 10.0 mi South 9.2 mph - N/A   Scattered Clouds
11:55 AM 34.7 °F 27.5 °F 25.0 °F 68% 30.14 in 10.0 mi South 9.2 mph - N/A   Clear
12:14 PM 35.6 °F 28.0 °F 25.0 °F 65% 30.13 in 10.0 mi South 10.4 mph - N/A   Clear
12:35 PM 35.6 °F 28.0 °F 23.7 °F 62% 30.10 in 10.0 mi South 10.4 mph - N/A   Clear
12:55 PM 36.1 °F 29.9 °F 24.3 °F 62% 30.09 in 10.0 mi SSE 8.1 mph - N/A   Clear
1:14 PM 36.0 °F 29.0 °F 23.9 °F 62% 30.08 in 10.0 mi SSE 9.2 mph - N/A   Clear
1:35 PM 36.1 °F 28.7 °F 23.7 °F 61% 30.08 in 10.0 mi South 10.4 mph - N/A   Clear
1:55 PM 36.0 °F 30.3 °F 23.7 °F 61% 30.06 in 10.0 mi South 6.9 mph - N/A   Clear
2:14 PM 36.5 °F 30.3 °F 23.7 °F 60% 30.05 in 10.0 mi South 8.1 mph - N/A   Clear
2:35 PM 36.9 °F 32.2 °F 24.8 °F 62% 30.04 in 10.0 mi South 5.8 mph - N/A   Clear
2:55 PM 37.4 °F 32.1 °F 25.0 °F 61% 30.03 in 10.0 mi South 6.9 mph - N/A   Scattered Clouds
3:14 PM 37.4 °F 32.1 °F 24.8 °F 60% 30.03 in 10.0 mi South 6.9 mph - N/A   Clear
3:35 PM 37.8 °F 32.5 °F 25.5 °F 61% 30.02 in 10.0 mi SSE 6.9 mph - N/A   Clear
3:55 PM 37.4 °F 31.4 °F 25.7 °F 63% 30.02 in 10.0 mi SSE 8.1 mph - N/A   Clear
4:14 PM 37.2 °F 31.2 °F 26.1 °F 64% 30.01 in 10.0 mi South 8.1 mph - N/A   Clear
4:35 PM 36.9 °F 30.7 °F 26.1 °F 65% 30.01 in 10.0 mi South 8.1 mph - N/A   Scattered Clouds
4:55 PM 36.5 °F 31.8 °F 26.2 °F 66% 30.01 in 10.0 mi SSE 5.8 mph - N/A   Mostly Cloudy
5:15 PM 36.1 °F 29.9 °F 26.6 °F 68% 30.00 in 10.0 mi SSE 8.1 mph - N/A   Scattered Clouds
5:35 PM 35.8 °F 30.9 °F 27.0 °F 70% 30.00 in 10.0 mi SSE 5.8 mph - N/A   Mostly Cloudy
5:54 PM 35.8 °F 28.3 °F 27.3 °F 71% 29.99 in 10.0 mi SSE 10.4 mph - N/A   Mostly Cloudy
6:15 PM 35.6 °F 28.0 °F 27.3 °F 72% 29.99 in 10.0 mi SSE 10.4 mph - N/A   Overcast
6:35 PM 35.6 °F 29.2 °F 27.5 °F 72% 30.00 in 10.0 mi South 8.1 mph - N/A   Overcast
6:55 PM 35.6 °F 29.2 °F 27.9 °F 73% 30.00 in 10.0 mi South 8.1 mph - N/A   Overcast
7:15 PM 35.6 °F 28.0 °F 28.2 °F 75% 29.99 in 10.0 mi South 10.4 mph - N/A   Overcast
7:34 PM 35.6 °F 28.6 °F 28.2 °F 75% 29.98 in 10.0 mi SSE 9.2 mph 16.1 mph N/A   Overcast
7:55 PM 35.6 °F 28.0 °F 28.2 °F 75% 29.99 in 10.0 mi South 10.4 mph - N/A   Overcast
8:15 PM 35.8 °F 30.1 °F 28.4 °F 75% 29.98 in 10.0 mi South 6.9 mph - N/A   Overcast
8:34 PM 35.8 °F 28.8 °F 28.4 °F 75% 29.98 in 10.0 mi South 9.2 mph - N/A   Mostly Cloudy
8:55 PM 35.6 °F 29.2 °F 28.2 °F 75% 29.98 in 10.0 mi South 8.1 mph - N/A   Scattered Clouds
9:34 PM 35.6 °F 30.7 °F 28.4 °F 75% 29.96 in 10.0 mi South 5.8 mph - N/A   Scattered Clouds
9:55 PM 35.8 °F 28.8 °F 28.4 °F 75% 29.96 in 10.0 mi South 9.2 mph - N/A   Overcast
10:15 PM 36.0 °F 28.5 °F 28.6 °F 75% 29.96 in 10.0 mi South 10.4 mph - N/A   Overcast
10:34 PM 36.3 °F 30.8 °F 28.8 °F 74% 29.96 in 10.0 mi South 6.9 mph - N/A   Overcast
10:55 PM 36.5 °F 30.3 °F 29.1 °F 75% 29.95 in 10.0 mi South 8.1 mph - N/A   Overcast
11:14 PM 36.5 °F 30.3 °F 29.3 °F 75% 29.95 in 10.0 mi South 8.1 mph - N/A   Overcast
11:35 PM 36.7 °F 31.2 °F 29.3 °F 75% 29.94 in 10.0 mi South 6.9 mph - N/A   Overcast
11:55 PM 36.7 °F 32.9 °F 29.3 °F 75% 29.94 in 10.0 mi South 4.6 mph - N/A   Overcast